Anzahl Datensätze: 288
min. Temperatur: 17.4 °C
max. Temperatur: 35.6 °C
max. Windgeschwindigkeit: 22.7 km/h
Niederschlagsumme: 0.0 mm
| Datum |
Zeit |
Temp °C |
Feuchte % |
Taupunkt °C |
Luftdruck hPa |
Wind km/h |
Windrichtung |
Strahlung w/m² |
Niederschlag mm |
|---|---|---|---|---|---|---|---|---|---|
| 01.07.2025 | 00:03 | 20.7 | 85 | 18.1 | 1015.5 | 0.0 | SSW | 0 | 0.0 |
| 01.07.2025 | 00:09 | 20.6 | 85 | 18.0 | 1015.6 | 0.0 | SSW | 0 | 0.0 |
| 01.07.2025 | 00:12 | 20.6 | 85 | 18.0 | 1015.6 | 0.0 | SSW | 0 | 0.0 |
| 01.07.2025 | 00:18 | 20.5 | 85 | 17.9 | 1015.6 | 0.0 | SSW | 0 | 0.0 |
| 01.07.2025 | 00:24 | 20.4 | 85 | 17.8 | 1015.7 | 0.0 | SSW | 0 | 0.0 |
| 01.07.2025 | 00:27 | 20.4 | 85 | 17.8 | 1015.7 | 0.0 | S | 0 | 0.0 |
| 01.07.2025 | 00:33 | 20.4 | 85 | 17.8 | 1015.7 | 0.0 | S | 0 | 0.0 |
| 01.07.2025 | 00:39 | 20.3 | 85 | 17.7 | 1015.7 | 0.0 | S | 0 | 0.0 |
| 01.07.2025 | 00:42 | 20.3 | 85 | 17.7 | 1015.7 | 0.0 | S | 0 | 0.0 |
| 01.07.2025 | 00:48 | 20.2 | 85 | 17.6 | 1015.7 | 0.0 | S | 0 | 0.0 |
| 01.07.2025 | 00:54 | 20.1 | 85 | 17.5 | 1015.7 | 0.0 | S | 0 | 0.0 |
| 01.07.2025 | 00:57 | 20.1 | 85 | 17.5 | 1015.7 | 0.0 | O | 0 | 0.0 |
| 01.07.2025 | 01:03 | 20.1 | 85 | 17.5 | 1015.8 | 0.0 | O | 0 | 0.0 |
| 01.07.2025 | 01:09 | 20.0 | 86 | 17.6 | 1015.7 | 0.0 | O | 0 | 0.0 |
| 01.07.2025 | 01:12 | 19.9 | 86 | 17.5 | 1015.7 | 0.0 | O | 0 | 0.0 |
| 01.07.2025 | 01:18 | 19.8 | 86 | 17.4 | 1015.8 | 0.0 | O | 0 | 0.0 |
| 01.07.2025 | 01:24 | 19.7 | 86 | 17.3 | 1015.7 | 0.0 | O | 0 | 0.0 |
| 01.07.2025 | 01:27 | 19.7 | 86 | 17.3 | 1015.7 | 0.0 | O | 0 | 0.0 |
| 01.07.2025 | 01:33 | 19.6 | 86 | 17.2 | 1015.7 | 0.0 | O | 0 | 0.0 |
| 01.07.2025 | 01:39 | 19.6 | 86 | 17.2 | 1015.8 | 0.0 | O | 0 | 0.0 |
| 01.07.2025 | 01:42 | 19.6 | 86 | 17.2 | 1015.8 | 0.0 | O | 0 | 0.0 |
| 01.07.2025 | 01:48 | 19.4 | 86 | 17.0 | 1015.8 | 0.0 | O | 0 | 0.0 |
| 01.07.2025 | 01:54 | 19.4 | 86 | 17.0 | 1015.8 | 0.0 | O | 0 | 0.0 |
| 01.07.2025 | 01:57 | 19.3 | 86 | 16.9 | 1015.8 | 0.0 | O | 0 | 0.0 |
| 01.07.2025 | 02:03 | 19.2 | 86 | 16.8 | 1015.8 | 0.0 | O | 0 | 0.0 |
| 01.07.2025 | 02:09 | 19.1 | 86 | 16.7 | 1015.8 | 0.0 | O | 0 | 0.0 |
| 01.07.2025 | 02:12 | 18.9 | 86 | 16.5 | 1015.8 | 0.0 | O | 0 | 0.0 |
| 01.07.2025 | 02:18 | 18.8 | 87 | 16.6 | 1015.8 | 0.0 | O | 0 | 0.0 |
| 01.07.2025 | 02:24 | 18.8 | 87 | 16.6 | 1016.0 | 0.0 | O | 0 | 0.0 |
| 01.07.2025 | 02:27 | 18.7 | 87 | 16.5 | 1016.0 | 0.0 | O | 0 | 0.0 |
| 01.07.2025 | 02:33 | 18.6 | 87 | 16.4 | 1016.0 | 1.4 | O | 0 | 0.0 |
| 01.07.2025 | 02:39 | 18.6 | 87 | 16.4 | 1016.0 | 0.0 | SO | 0 | 0.0 |
| 01.07.2025 | 02:42 | 18.6 | 87 | 16.4 | 1016.0 | 1.4 | SO | 0 | 0.0 |
| 01.07.2025 | 02:48 | 18.6 | 87 | 16.4 | 1015.9 | 1.4 | SO | 0 | 0.0 |
| 01.07.2025 | 02:54 | 18.6 | 87 | 16.4 | 1015.9 | 0.0 | SO | 0 | 0.0 |
| 01.07.2025 | 02:57 | 18.6 | 87 | 16.4 | 1016.0 | 0.0 | SO | 0 | 0.0 |
| 01.07.2025 | 03:03 | 18.5 | 87 | 16.3 | 1016.0 | 0.0 | SO | 0 | 0.0 |
| 01.07.2025 | 03:09 | 18.4 | 87 | 16.2 | 1016.0 | 0.0 | SO | 0 | 0.0 |
| 01.07.2025 | 03:12 | 18.4 | 87 | 16.2 | 1015.9 | 0.0 | SO | 0 | 0.0 |
| 01.07.2025 | 03:18 | 18.4 | 88 | 16.4 | 1015.8 | 0.0 | SO | 0 | 0.0 |
| 01.07.2025 | 03:24 | 18.4 | 88 | 16.4 | 1015.9 | 0.0 | SO | 0 | 0.0 |
| 01.07.2025 | 03:27 | 18.3 | 88 | 16.3 | 1015.9 | 0.0 | SO | 0 | 0.0 |
| 01.07.2025 | 03:33 | 18.3 | 88 | 16.3 | 1015.8 | 0.0 | O | 0 | 0.0 |
| 01.07.2025 | 03:39 | 18.3 | 88 | 16.3 | 1015.8 | 0.0 | O | 0 | 0.0 |
| 01.07.2025 | 03:42 | 18.3 | 87 | 16.1 | 1015.8 | 0.0 | O | 0 | 0.0 |
| 01.07.2025 | 03:48 | 18.2 | 87 | 16.0 | 1015.8 | 0.0 | O | 0 | 0.0 |
| 01.07.2025 | 03:54 | 18.2 | 88 | 16.2 | 1015.7 | 0.0 | O | 0 | 0.0 |
| 01.07.2025 | 03:57 | 18.2 | 88 | 16.2 | 1015.7 | 1.4 | O | 0 | 0.0 |
| 01.07.2025 | 04:03 | 18.2 | 88 | 16.2 | 1015.7 | 1.4 | ONO | 0 | 0.0 |
| 01.07.2025 | 04:09 | 18.2 | 88 | 16.2 | 1015.8 | 0.0 | ONO | 0 | 0.0 |
| 01.07.2025 | 04:12 | 18.2 | 88 | 16.2 | 1015.8 | 0.0 | ONO | 0 | 0.0 |
| 01.07.2025 | 04:18 | 18.2 | 88 | 16.2 | 1015.9 | 0.0 | ONO | 0 | 0.0 |
| 01.07.2025 | 04:24 | 18.1 | 88 | 16.1 | 1015.8 | 0.0 | ONO | 0 | 0.0 |
| 01.07.2025 | 04:27 | 18.1 | 88 | 16.1 | 1015.8 | 0.0 | ONO | 0 | 0.0 |
| 01.07.2025 | 04:33 | 17.9 | 88 | 15.9 | 1015.8 | 0.0 | ONO | 0 | 0.0 |
| 01.07.2025 | 04:39 | 17.9 | 88 | 15.9 | 1015.7 | 0.0 | ONO | 0 | 0.0 |
| 01.07.2025 | 04:42 | 17.9 | 88 | 15.9 | 1015.7 | 0.0 | ONO | 0 | 0.0 |
| 01.07.2025 | 04:48 | 17.9 | 88 | 15.9 | 1015.7 | 0.0 | ONO | 0 | 0.0 |
| 01.07.2025 | 04:54 | 17.9 | 88 | 15.9 | 1015.6 | 0.0 | ONO | 0 | 0.0 |
| 01.07.2025 | 04:57 | 17.9 | 88 | 15.9 | 1015.6 | 0.0 | ONO | 0 | 0.0 |
| 01.07.2025 | 05:03 | 17.9 | 88 | 15.9 | 1015.6 | 0.0 | ONO | 0 | 0.0 |
| 01.07.2025 | 05:09 | 17.8 | 88 | 15.8 | 1015.5 | 0.0 | NO | 0 | 0.0 |
| 01.07.2025 | 05:12 | 17.8 | 88 | 15.8 | 1015.5 | 0.0 | NO | 0 | 0.0 |
| 01.07.2025 | 05:18 | 17.8 | 88 | 15.8 | 1015.5 | 0.0 | NO | 0 | 0.0 |
| 01.07.2025 | 05:24 | 17.8 | 88 | 15.8 | 1015.6 | 0.0 | O | 0 | 0.0 |
| 01.07.2025 | 05:27 | 17.8 | 88 | 15.8 | 1015.6 | 0.0 | O | 0 | 0.0 |
| 01.07.2025 | 05:33 | 17.7 | 88 | 15.7 | 1015.7 | 0.0 | O | 0 | 0.0 |
| 01.07.2025 | 05:39 | 17.7 | 88 | 15.7 | 1015.7 | 0.0 | ONO | 5 | 0.0 |
| 01.07.2025 | 05:42 | 17.7 | 88 | 15.7 | 1015.7 | 0.0 | ONO | 5 | 0.0 |
| 01.07.2025 | 05:48 | 17.7 | 88 | 15.7 | 1015.8 | 0.0 | ONO | 7 | 0.0 |
| 01.07.2025 | 05:54 | 17.6 | 88 | 15.6 | 1015.8 | 0.0 | NO | 9 | 0.0 |
| 01.07.2025 | 05:57 | 17.6 | 88 | 15.6 | 1015.8 | 0.0 | NO | 9 | 0.0 |
| 01.07.2025 | 06:03 | 17.5 | 88 | 15.5 | 1015.8 | 1.4 | NNO | 12 | 0.0 |
| 01.07.2025 | 06:09 | 17.5 | 88 | 15.5 | 1015.8 | 0.0 | NNO | 14 | 0.0 |
| 01.07.2025 | 06:12 | 17.5 | 88 | 15.5 | 1015.8 | 0.0 | NNO | 14 | 0.0 |
| 01.07.2025 | 06:18 | 17.4 | 88 | 15.4 | 1015.8 | 0.0 | NNO | 16 | 0.0 |
| 01.07.2025 | 06:24 | 17.5 | 88 | 15.5 | 1015.9 | 0.0 | NNO | 19 | 0.0 |
| 01.07.2025 | 06:27 | 17.6 | 88 | 15.6 | 1015.9 | 0.0 | NNO | 23 | 0.0 |
| 01.07.2025 | 06:33 | 17.6 | 88 | 15.6 | 1015.9 | 0.0 | NNO | 28 | 0.0 |
| 01.07.2025 | 06:39 | 17.6 | 88 | 15.6 | 1015.9 | 0.0 | NNO | 26 | 0.0 |
| 01.07.2025 | 06:42 | 17.6 | 88 | 15.6 | 1015.8 | 0.0 | NNO | 28 | 0.0 |
| 01.07.2025 | 06:48 | 17.6 | 88 | 15.6 | 1016.0 | 1.4 | NNO | 32 | 0.0 |
| 01.07.2025 | 06:54 | 17.7 | 88 | 15.7 | 1015.8 | 0.0 | NNO | 35 | 0.0 |
| 01.07.2025 | 06:57 | 17.7 | 88 | 15.7 | 1015.9 | 0.0 | NNO | 37 | 0.0 |
| 01.07.2025 | 07:03 | 17.8 | 88 | 15.8 | 1015.8 | 1.4 | NNO | 35 | 0.0 |
| 01.07.2025 | 07:09 | 17.9 | 88 | 15.9 | 1015.9 | 0.0 | NNO | 33 | 0.0 |
| 01.07.2025 | 07:12 | 17.9 | 88 | 15.9 | 1016.0 | 0.0 | NNO | 35 | 0.0 |
| 01.07.2025 | 07:18 | 18.1 | 88 | 16.1 | 1015.9 | 0.0 | NNO | 32 | 0.0 |
| 01.07.2025 | 07:24 | 18.2 | 88 | 16.2 | 1015.9 | 0.0 | NNO | 33 | 0.0 |
| 01.07.2025 | 07:27 | 18.2 | 88 | 16.2 | 1015.9 | 0.0 | NNO | 35 | 0.0 |
| 01.07.2025 | 07:33 | 18.4 | 88 | 16.4 | 1016.0 | 0.0 | NNO | 35 | 0.0 |
| 01.07.2025 | 07:39 | 18.5 | 88 | 16.5 | 1016.0 | 0.0 | NNO | 37 | 0.0 |
| 01.07.2025 | 07:42 | 18.6 | 88 | 16.6 | 1016.0 | 0.0 | NNO | 39 | 0.0 |
| 01.07.2025 | 07:48 | 18.7 | 88 | 16.7 | 1016.0 | 0.0 | NNO | 40 | 0.0 |
| 01.07.2025 | 07:54 | 18.9 | 87 | 16.7 | 1016.0 | 0.0 | NNO | 42 | 0.0 |
| 01.07.2025 | 07:57 | 19.0 | 87 | 16.8 | 1016.1 | 0.0 | OSO | 44 | 0.0 |
| 01.07.2025 | 08:03 | 19.2 | 87 | 17.0 | 1016.1 | 0.0 | OSO | 47 | 0.0 |
| 01.07.2025 | 08:09 | 19.4 | 86 | 17.0 | 1016.1 | 0.0 | OSO | 53 | 0.0 |
| 01.07.2025 | 08:12 | 19.5 | 86 | 17.1 | 1016.1 | 0.0 | SO | 56 | 0.0 |
| 01.07.2025 | 08:18 | 19.8 | 85 | 17.2 | 1016.2 | 1.4 | SO | 65 | 0.0 |
| 01.07.2025 | 08:24 | 20.1 | 85 | 17.5 | 1016.1 | 0.0 | SO | 74 | 0.0 |
| 01.07.2025 | 08:27 | 20.2 | 84 | 17.4 | 1016.1 | 0.0 | SO | 76 | 0.0 |
| 01.07.2025 | 08:33 | 20.5 | 83 | 17.5 | 1016.1 | 0.0 | NO | 79 | 0.0 |
| 01.07.2025 | 08:39 | 20.9 | 83 | 17.9 | 1016.1 | 0.0 | OSO | 95 | 0.0 |
| 01.07.2025 | 08:42 | 21.1 | 83 | 18.1 | 1016.1 | 0.0 | ONO | 109 | 0.0 |
| 01.07.2025 | 08:48 | 21.6 | 82 | 18.4 | 1016.2 | 0.0 | OSO | 139 | 0.0 |
| 01.07.2025 | 08:54 | 21.9 | 80 | 18.3 | 1016.1 | 0.0 | NNW | 197 | 0.0 |
| 01.07.2025 | 08:57 | 22.2 | 79 | 18.4 | 1016.1 | 1.4 | SSO | 135 | 0.0 |
| 01.07.2025 | 09:03 | 22.6 | 78 | 18.6 | 1016.2 | 1.4 | SO | 204 | 0.0 |
| 01.07.2025 | 09:09 | 22.8 | 77 | 18.6 | 1016.2 | 1.4 | SO | 179 | 0.0 |
| 01.07.2025 | 09:12 | 23.0 | 77 | 18.7 | 1016.2 | 0.0 | SO | 181 | 0.0 |
| 01.07.2025 | 09:18 | 23.4 | 76 | 18.9 | 1016.2 | 0.0 | SO | 541 | 0.0 |
| 01.07.2025 | 09:24 | 23.9 | 74 | 19.0 | 1016.2 | 0.0 | SO | 167 | 0.0 |
| 01.07.2025 | 09:27 | 24.1 | 74 | 19.2 | 1016.2 | 1.4 | SSO | 169 | 0.0 |
| 01.07.2025 | 09:33 | 24.2 | 74 | 19.3 | 1016.2 | 0.0 | O | 153 | 0.0 |
| 01.07.2025 | 09:39 | 24.3 | 74 | 19.4 | 1016.3 | 0.0 | O | 171 | 0.0 |
| 01.07.2025 | 09:42 | 24.4 | 76 | 19.9 | 1016.3 | 0.0 | SSW | 207 | 0.0 |
| 01.07.2025 | 09:48 | 24.3 | 77 | 20.0 | 1016.3 | 1.4 | S | 220 | 0.0 |
| 01.07.2025 | 09:54 | 24.4 | 76 | 19.9 | 1016.3 | 1.4 | S | 617 | 0.0 |
| 01.07.2025 | 09:57 | 24.7 | 75 | 20.0 | 1016.3 | 1.4 | SSO | 636 | 0.0 |
| 01.07.2025 | 10:03 | 25.3 | 72 | 19.9 | 1016.3 | 1.4 | SSO | 517 | 0.0 |
| 01.07.2025 | 10:09 | 25.6 | 70 | 19.7 | 1016.3 | 1.4 | WNW | 696 | 0.0 |
| 01.07.2025 | 10:12 | 25.8 | 71 | 20.1 | 1016.2 | 1.4 | N | 657 | 0.0 |
| 01.07.2025 | 10:18 | 26.1 | 67 | 19.5 | 1016.2 | 1.4 | N | 624 | 0.0 |
| 01.07.2025 | 10:24 | 26.8 | 67 | 20.2 | 1016.2 | 1.4 | SSW | 615 | 0.0 |
| 01.07.2025 | 10:27 | 27.1 | 66 | 20.2 | 1016.2 | 1.4 | SW | 629 | 0.0 |
| 01.07.2025 | 10:33 | 27.5 | 65 | 20.3 | 1016.2 | 0.0 | N | 638 | 0.0 |
| 01.07.2025 | 10:39 | 27.9 | 63 | 20.2 | 1016.2 | 1.4 | SSW | 640 | 0.0 |
| 01.07.2025 | 10:42 | 28.0 | 56 | 18.4 | 1016.2 | 1.4 | N | 643 | 0.0 |
| 01.07.2025 | 10:48 | 28.6 | 58 | 19.5 | 1016.1 | 1.4 | SSO | 649 | 0.0 |
| 01.07.2025 | 10:54 | 28.9 | 56 | 19.2 | 1016.1 | 1.4 | SSW | 663 | 0.0 |
| 01.07.2025 | 10:57 | 29.1 | 54 | 18.8 | 1016.1 | 1.4 | SO | 673 | 0.0 |
| 01.07.2025 | 11:03 | 29.2 | 51 | 18.0 | 1016.1 | 1.4 | WSW | 680 | 0.0 |
| 01.07.2025 | 11:09 | 29.4 | 52 | 18.5 | 1016.1 | 1.4 | SSW | 684 | 0.0 |
| 01.07.2025 | 11:12 | 29.6 | 52 | 18.7 | 1016.1 | 1.4 | SO | 696 | 0.0 |
| 01.07.2025 | 11:18 | 29.9 | 52 | 19.0 | 1016.1 | 1.4 | S | 698 | 0.0 |
| 01.07.2025 | 11:24 | 29.9 | 51 | 18.7 | 1016.1 | 3.2 | SSW | 705 | 0.0 |
| 01.07.2025 | 11:27 | 30.0 | 50 | 18.4 | 1016.1 | 1.4 | S | 717 | 0.0 |
| 01.07.2025 | 11:33 | 30.0 | 50 | 18.4 | 1016.0 | 3.2 | SSO | 717 | 0.0 |
| 01.07.2025 | 11:39 | 30.1 | 50 | 18.5 | 1016.0 | 1.4 | W | 731 | 0.0 |
| 01.07.2025 | 11:42 | 30.1 | 51 | 18.8 | 1016.0 | 1.4 | SW | 731 | 0.0 |
| 01.07.2025 | 11:48 | 30.7 | 50 | 19.1 | 1016.0 | 1.4 | SW | 740 | 0.0 |
| 01.07.2025 | 11:54 | 30.8 | 50 | 19.2 | 1016.1 | 1.4 | W | 745 | 0.0 |
| 01.07.2025 | 11:57 | 31.1 | 48 | 18.8 | 1016.0 | 1.4 | SW | 747 | 0.0 |
| 01.07.2025 | 12:03 | 31.3 | 48 | 19.0 | 1016.0 | 1.4 | N | 749 | 0.0 |
| 01.07.2025 | 12:09 | 31.4 | 49 | 19.4 | 1016.0 | 3.2 | N | 759 | 0.0 |
| 01.07.2025 | 12:12 | 31.6 | 49 | 19.6 | 1016.0 | 3.2 | SSW | 765 | 0.0 |
| 01.07.2025 | 12:18 | 31.7 | 46 | 18.7 | 1016.0 | 3.2 | N | 772 | 0.0 |
| 01.07.2025 | 12:24 | 31.4 | 47 | 18.7 | 1016.0 | 4.7 | W | 772 | 0.0 |
| 01.07.2025 | 12:27 | 31.4 | 47 | 18.7 | 1015.9 | 3.2 | NNO | 773 | 0.0 |
| 01.07.2025 | 12:33 | 32.0 | 46 | 18.9 | 1015.9 | 3.2 | SW | 779 | 0.0 |
| 01.07.2025 | 12:39 | 32.2 | 45 | 18.8 | 1015.9 | 3.2 | W | 768 | 0.0 |
| 01.07.2025 | 12:42 | 32.2 | 45 | 18.8 | 1015.9 | 3.2 | OSO | 780 | 0.0 |
| 01.07.2025 | 12:48 | 32.3 | 45 | 18.8 | 1015.9 | 3.2 | NNO | 784 | 0.0 |
| 01.07.2025 | 12:54 | 32.5 | 44 | 18.7 | 1015.8 | 4.7 | NW | 784 | 0.0 |
| 01.07.2025 | 12:57 | 32.3 | 44 | 18.5 | 1015.8 | 4.7 | S | 791 | 0.0 |
| 01.07.2025 | 13:03 | 32.3 | 44 | 18.5 | 1015.7 | 3.2 | SSW | 784 | 0.0 |
| 01.07.2025 | 13:09 | 32.2 | 44 | 18.4 | 1015.7 | 3.2 | SSO | 784 | 0.0 |
| 01.07.2025 | 13:12 | 32.5 | 44 | 18.7 | 1015.7 | 3.2 | O | 779 | 0.0 |
| 01.07.2025 | 13:18 | 32.9 | 43 | 18.7 | 1015.6 | 1.4 | W | 786 | 0.0 |
| 01.07.2025 | 13:24 | 32.4 | 44 | 18.6 | 1015.5 | 3.2 | WSW | 786 | 0.0 |
| 01.07.2025 | 13:27 | 32.4 | 44 | 18.6 | 1015.5 | 4.7 | NW | 779 | 0.0 |
| 01.07.2025 | 13:33 | 32.6 | 44 | 18.8 | 1015.5 | 4.7 | SSW | 756 | 0.0 |
| 01.07.2025 | 13:39 | 32.6 | 44 | 18.8 | 1015.5 | 3.2 | NNW | 786 | 0.0 |
| 01.07.2025 | 13:42 | 32.8 | 43 | 18.6 | 1015.5 | 3.2 | S | 795 | 0.0 |
| 01.07.2025 | 13:48 | 32.9 | 43 | 18.7 | 1015.5 | 3.2 | SSO | 796 | 0.0 |
| 01.07.2025 | 13:54 | 33.2 | 43 | 18.9 | 1015.4 | 3.2 | N | 800 | 0.0 |
| 01.07.2025 | 13:57 | 33.3 | 42 | 18.6 | 1015.5 | 3.2 | SW | 809 | 0.0 |
| 01.07.2025 | 14:03 | 33.5 | 41 | 18.4 | 1015.4 | 3.2 | W | 795 | 0.0 |
| 01.07.2025 | 14:09 | 33.7 | 41 | 18.6 | 1015.4 | 3.2 | S | 786 | 0.0 |
| 01.07.2025 | 14:12 | 33.6 | 41 | 18.5 | 1015.3 | 3.2 | SW | 784 | 0.0 |
| 01.07.2025 | 14:18 | 33.2 | 42 | 18.6 | 1015.3 | 4.7 | W | 782 | 0.0 |
| 01.07.2025 | 14:24 | 32.9 | 41 | 17.9 | 1015.3 | 4.7 | N | 788 | 0.0 |
| 01.07.2025 | 14:27 | 32.9 | 42 | 18.3 | 1015.3 | 3.2 | N | 798 | 0.0 |
| 01.07.2025 | 14:33 | 33.4 | 41 | 18.3 | 1015.2 | 3.2 | WNW | 800 | 0.0 |
| 01.07.2025 | 14:39 | 33.7 | 41 | 18.6 | 1015.2 | 3.2 | S | 791 | 0.0 |
| 01.07.2025 | 14:42 | 33.7 | 41 | 18.6 | 1015.1 | 3.2 | NNW | 795 | 0.0 |
| 01.07.2025 | 14:48 | 33.8 | 42 | 19.1 | 1015.1 | 3.2 | WSW | 793 | 0.0 |
| 01.07.2025 | 14:54 | 33.7 | 42 | 19.0 | 1015.1 | 3.2 | SSW | 798 | 0.0 |
| 01.07.2025 | 14:57 | 33.8 | 41 | 18.7 | 1015.1 | 3.2 | SW | 777 | 0.0 |
| 01.07.2025 | 15:03 | 33.6 | 42 | 18.9 | 1015.1 | 3.2 | SW | 577 | 0.0 |
| 01.07.2025 | 15:09 | 33.3 | 41 | 18.3 | 1015.1 | 4.7 | NNO | 571 | 0.0 |
| 01.07.2025 | 15:12 | 33.1 | 42 | 18.5 | 1015.0 | 4.7 | N | 297 | 0.0 |
| 01.07.2025 | 15:18 | 33.3 | 42 | 18.6 | 1015.0 | 3.2 | SSO | 773 | 0.0 |
| 01.07.2025 | 15:24 | 33.8 | 41 | 18.7 | 1015.0 | 3.2 | S | 744 | 0.0 |
| 01.07.2025 | 15:27 | 33.9 | 39 | 18.0 | 1015.0 | 3.2 | SO | 740 | 0.0 |
| 01.07.2025 | 15:33 | 34.2 | 39 | 18.3 | 1015.0 | 3.2 | N | 737 | 0.0 |
| 01.07.2025 | 15:39 | 34.2 | 40 | 18.7 | 1014.9 | 4.7 | ONO | 731 | 0.0 |
| 01.07.2025 | 15:42 | 34.7 | 39 | 18.7 | 1014.9 | 3.2 | N | 717 | 0.0 |
| 01.07.2025 | 15:48 | 34.7 | 38 | 18.3 | 1014.9 | 3.2 | NNO | 686 | 0.0 |
| 01.07.2025 | 15:54 | 34.7 | 38 | 18.3 | 1014.9 | 3.2 | SO | 668 | 0.0 |
| 01.07.2025 | 15:57 | 34.7 | 37 | 17.9 | 1014.8 | 3.2 | SW | 666 | 0.0 |
| 01.07.2025 | 16:03 | 34.6 | 37 | 17.8 | 1014.8 | 4.7 | S | 654 | 0.0 |
| 01.07.2025 | 16:09 | 34.6 | 36 | 17.3 | 1014.8 | 4.7 | SSO | 654 | 0.0 |
| 01.07.2025 | 16:12 | 34.6 | 36 | 17.3 | 1014.8 | 4.7 | W | 649 | 0.0 |
| 01.07.2025 | 16:18 | 34.8 | 36 | 17.5 | 1014.8 | 3.2 | WNW | 645 | 0.0 |
| 01.07.2025 | 16:24 | 35.3 | 35 | 17.5 | 1014.8 | 1.4 | OSO | 626 | 0.0 |
| 01.07.2025 | 16:27 | 35.6 | 35 | 17.8 | 1014.7 | 1.4 | N | 612 | 0.0 |
| 01.07.2025 | 16:33 | 35.4 | 31 | 15.7 | 1014.8 | 3.2 | WSW | 608 | 0.0 |
| 01.07.2025 | 16:39 | 35.4 | 31 | 15.7 | 1014.7 | 3.2 | NNO | 587 | 0.0 |
| 01.07.2025 | 16:42 | 35.3 | 31 | 15.6 | 1014.7 | 3.2 | NNO | 584 | 0.0 |
| 01.07.2025 | 16:48 | 34.9 | 31 | 15.3 | 1014.6 | 4.7 | SSO | 564 | 0.0 |
| 01.07.2025 | 16:54 | 35.1 | 33 | 16.4 | 1014.6 | 3.2 | NW | 545 | 0.0 |
| 01.07.2025 | 16:57 | 35.1 | 33 | 16.4 | 1014.6 | 3.2 | SW | 536 | 0.0 |
| 01.07.2025 | 17:03 | 35.3 | 35 | 17.5 | 1014.5 | 1.4 | SSO | 513 | 0.0 |
| 01.07.2025 | 17:09 | 35.1 | 35 | 17.3 | 1014.5 | 3.2 | SO | 503 | 0.0 |
| 01.07.2025 | 17:12 | 35.0 | 35 | 17.3 | 1014.5 | 3.2 | WSW | 504 | 0.0 |
| 01.07.2025 | 17:18 | 34.9 | 35 | 17.2 | 1014.5 | 3.2 | OSO | 489 | 0.0 |
| 01.07.2025 | 17:24 | 35.3 | 33 | 16.6 | 1014.4 | 3.2 | NNO | 475 | 0.0 |
| 01.07.2025 | 17:27 | 35.4 | 33 | 16.7 | 1014.3 | 3.2 | NNO | 473 | 0.0 |
| 01.07.2025 | 17:33 | 35.3 | 34 | 17.1 | 1014.3 | 3.2 | N | 454 | 0.0 |
| 01.07.2025 | 17:39 | 35.4 | 33 | 16.7 | 1014.3 | 3.2 | NNO | 438 | 0.0 |
| 01.07.2025 | 17:42 | 35.3 | 34 | 17.1 | 1014.2 | 3.2 | W | 431 | 0.0 |
| 01.07.2025 | 17:48 | 35.3 | 33 | 16.6 | 1014.2 | 3.2 | SW | 411 | 0.0 |
| 01.07.2025 | 17:54 | 35.2 | 35 | 17.4 | 1014.2 | 1.4 | WNW | 394 | 0.0 |
| 01.07.2025 | 17:57 | 35.1 | 33 | 16.4 | 1014.2 | 1.4 | N | 383 | 0.0 |
| 01.07.2025 | 18:03 | 34.9 | 37 | 18.0 | 1014.2 | 1.4 | W | 373 | 0.0 |
| 01.07.2025 | 18:09 | 34.6 | 40 | 19.0 | 1014.1 | 1.4 | NW | 355 | 0.0 |
| 01.07.2025 | 18:12 | 34.4 | 40 | 18.8 | 1014.1 | 3.2 | WNW | 345 | 0.0 |
| 01.07.2025 | 18:18 | 34.3 | 39 | 18.4 | 1014.1 | 1.4 | W | 323 | 0.0 |
| 01.07.2025 | 18:24 | 34.0 | 41 | 18.9 | 1014.1 | 1.4 | WNW | 195 | 0.0 |
| 01.07.2025 | 18:27 | 33.7 | 42 | 19.0 | 1014.1 | 1.4 | WNW | 306 | 0.0 |
| 01.07.2025 | 18:33 | 33.4 | 44 | 19.5 | 1014.0 | 1.4 | NNW | 290 | 0.0 |
| 01.07.2025 | 18:39 | 33.2 | 47 | 20.4 | 1014.1 | 3.2 | NW | 281 | 0.0 |
| 01.07.2025 | 18:42 | 33.1 | 47 | 20.3 | 1014.0 | 3.2 | NW | 279 | 0.0 |
| 01.07.2025 | 18:48 | 33.0 | 46 | 19.8 | 1014.0 | 3.2 | NW | 267 | 0.0 |
| 01.07.2025 | 18:54 | 32.9 | 48 | 20.4 | 1013.9 | 3.2 | WNW | 251 | 0.0 |
| 01.07.2025 | 18:57 | 32.8 | 48 | 20.3 | 1014.0 | 3.2 | NNW | 239 | 0.0 |
| 01.07.2025 | 19:03 | 32.3 | 50 | 20.5 | 1013.9 | 3.2 | NW | 225 | 0.0 |
| 01.07.2025 | 19:09 | 31.9 | 51 | 20.5 | 1014.0 | 3.2 | W | 214 | 0.0 |
| 01.07.2025 | 19:12 | 31.8 | 51 | 20.4 | 1013.9 | 1.4 | WNW | 209 | 0.0 |
| 01.07.2025 | 19:18 | 31.8 | 52 | 20.7 | 1013.9 | 1.4 | NNW | 190 | 0.0 |
| 01.07.2025 | 19:24 | 31.8 | 53 | 21.0 | 1013.9 | 1.4 | WNW | 174 | 0.0 |
| 01.07.2025 | 19:27 | 31.6 | 54 | 21.2 | 1013.9 | 1.4 | WNW | 165 | 0.0 |
| 01.07.2025 | 19:33 | 31.1 | 55 | 21.0 | 1013.9 | 1.4 | NNW | 148 | 0.0 |
| 01.07.2025 | 19:39 | 30.7 | 56 | 20.9 | 1013.9 | 1.4 | W | 132 | 0.0 |
| 01.07.2025 | 19:42 | 30.4 | 57 | 20.9 | 1013.9 | 1.4 | NW | 123 | 0.0 |
| 01.07.2025 | 19:48 | 30.0 | 59 | 21.1 | 1013.9 | 1.4 | W | 90 | 0.0 |
| 01.07.2025 | 19:54 | 29.4 | 61 | 21.1 | 1013.9 | 1.4 | WSW | 39 | 0.0 |
| 01.07.2025 | 19:57 | 28.9 | 61 | 20.6 | 1013.9 | 1.4 | WSW | 35 | 0.0 |
| 01.07.2025 | 20:03 | 28.4 | 63 | 20.7 | 1013.9 | 1.4 | WSW | 32 | 0.0 |
| 01.07.2025 | 20:09 | 27.9 | 65 | 20.7 | 1013.9 | 1.4 | W | 30 | 0.0 |
| 01.07.2025 | 20:12 | 27.7 | 65 | 20.5 | 1013.9 | 1.4 | W | 30 | 0.0 |
| 01.07.2025 | 20:18 | 27.3 | 66 | 20.4 | 1013.9 | 1.4 | W | 28 | 0.0 |
| 01.07.2025 | 20:24 | 27.1 | 68 | 20.7 | 1014.0 | 1.4 | SW | 26 | 0.0 |
| 01.07.2025 | 20:27 | 27.0 | 69 | 20.8 | 1014.1 | 1.4 | SW | 26 | 0.0 |
| 01.07.2025 | 20:33 | 26.6 | 68 | 20.2 | 1014.0 | 1.4 | W | 25 | 0.0 |
| 01.07.2025 | 20:39 | 26.4 | 71 | 20.7 | 1014.1 | 1.4 | SSO | 23 | 0.0 |
| 01.07.2025 | 20:42 | 26.2 | 71 | 20.5 | 1014.1 | 1.4 | WSW | 23 | 0.0 |
| 01.07.2025 | 20:48 | 25.8 | 73 | 20.6 | 1014.1 | 1.4 | WSW | 21 | 0.0 |
| 01.07.2025 | 20:54 | 25.5 | 73 | 20.3 | 1014.1 | 1.4 | WSW | 19 | 0.0 |
| 01.07.2025 | 20:57 | 25.3 | 74 | 20.3 | 1014.2 | 1.4 | WSW | 18 | 0.0 |
| 01.07.2025 | 21:03 | 25.1 | 75 | 20.4 | 1014.2 | 1.4 | S | 16 | 0.0 |
| 01.07.2025 | 21:09 | 24.8 | 76 | 20.3 | 1014.2 | 1.4 | S | 14 | 0.0 |
| 01.07.2025 | 21:12 | 24.7 | 77 | 20.4 | 1014.3 | 1.4 | S | 14 | 0.0 |
| 01.07.2025 | 21:18 | 24.5 | 77 | 20.2 | 1014.3 | 1.4 | S | 12 | 0.0 |
| 01.07.2025 | 21:24 | 24.3 | 78 | 20.2 | 1014.3 | 0.0 | S | 9 | 0.0 |
| 01.07.2025 | 21:27 | 24.3 | 78 | 20.2 | 1014.2 | 0.0 | S | 9 | 0.0 |
| 01.07.2025 | 21:33 | 24.1 | 79 | 20.2 | 1014.2 | 1.4 | S | 7 | 0.0 |
| 01.07.2025 | 21:39 | 23.8 | 79 | 19.9 | 1014.3 | 1.4 | S | 5 | 0.0 |
| 01.07.2025 | 21:42 | 23.7 | 80 | 20.0 | 1014.3 | 1.4 | S | 0 | 0.0 |
| 01.07.2025 | 21:48 | 23.4 | 80 | 19.8 | 1014.4 | 1.4 | S | 0 | 0.0 |
| 01.07.2025 | 21:54 | 23.2 | 81 | 19.8 | 1014.5 | 1.4 | S | 0 | 0.0 |
| 01.07.2025 | 21:57 | 23.1 | 81 | 19.7 | 1014.5 | 1.4 | S | 0 | 0.0 |
| 01.07.2025 | 22:03 | 22.9 | 82 | 19.7 | 1014.6 | 0.0 | S | 0 | 0.0 |
| 01.07.2025 | 22:09 | 22.7 | 82 | 19.5 | 1014.7 | 1.4 | S | 0 | 0.0 |
| 01.07.2025 | 22:12 | 22.6 | 82 | 19.4 | 1014.8 | 1.4 | S | 0 | 0.0 |
| 01.07.2025 | 22:18 | 22.4 | 83 | 19.4 | 1014.8 | 1.4 | S | 0 | 0.0 |
| 01.07.2025 | 22:24 | 22.2 | 83 | 19.2 | 1014.8 | 1.4 | S | 0 | 0.0 |
| 01.07.2025 | 22:27 | 22.1 | 83 | 19.1 | 1014.8 | 1.4 | S | 0 | 0.0 |
| 01.07.2025 | 22:33 | 21.9 | 83 | 18.9 | 1014.9 | 1.4 | S | 0 | 0.0 |
| 01.07.2025 | 22:39 | 21.8 | 83 | 18.8 | 1014.9 | 1.4 | S | 0 | 0.0 |
| 01.07.2025 | 22:42 | 21.7 | 84 | 18.9 | 1014.9 | 1.4 | S | 0 | 0.0 |
| 01.07.2025 | 22:48 | 21.6 | 84 | 18.8 | 1015.0 | 1.4 | S | 0 | 0.0 |
| 01.07.2025 | 22:54 | 21.3 | 84 | 18.5 | 1015.1 | 1.4 | S | 0 | 0.0 |
| 01.07.2025 | 22:57 | 21.3 | 84 | 18.5 | 1015.0 | 1.4 | S | 0 | 0.0 |
| 01.07.2025 | 23:03 | 21.1 | 85 | 18.5 | 1015.1 | 0.0 | S | 0 | 0.0 |
| 01.07.2025 | 23:09 | 20.9 | 85 | 18.3 | 1015.1 | 1.4 | S | 0 | 0.0 |
| 01.07.2025 | 23:12 | 20.9 | 85 | 18.3 | 1015.1 | 1.4 | S | 0 | 0.0 |
| 01.07.2025 | 23:18 | 20.8 | 85 | 18.2 | 1015.1 | 1.4 | S | 0 | 0.0 |
| 01.07.2025 | 23:24 | 20.6 | 85 | 18.0 | 1015.1 | 1.4 | S | 0 | 0.0 |
| 01.07.2025 | 23:27 | 20.6 | 85 | 18.0 | 1015.1 | 1.4 | S | 0 | 0.0 |
| 01.07.2025 | 23:33 | 20.4 | 85 | 17.8 | 1015.1 | 1.4 | S | 0 | 0.0 |
| 01.07.2025 | 23:39 | 20.3 | 86 | 17.9 | 1015.1 | 1.4 | S | 0 | 0.0 |
| 01.07.2025 | 23:42 | 20.3 | 86 | 17.9 | 1015.2 | 1.4 | S | 0 | 0.0 |
| 01.07.2025 | 23:48 | 20.2 | 85 | 17.6 | 1015.2 | 1.4 | S | 0 | 0.0 |
| 01.07.2025 | 23:54 | 20.1 | 85 | 17.5 | 1015.2 | 1.4 | S | 0 | 0.0 |
| 01.07.2025 | 23:57 | 20.0 | 86 | 17.6 | 1015.2 | 0.0 | S | 0 | 0.0 |